CZ-6A DEB, 54895

Orbit data source: Space-Track

CZ-6A DEB, 54895 is space debris in SSO originally from a launch on Fri, 11 Nov 2022 UTC launched from the Taiyaun Space Center, China (TSC). Debris objects in space refer to the collection of defunct objects orbiting the Earth. Examples of debris include non-operational satellites, rocket bodies, and fragments generated from explosions, collisions, or faulty payload assembly.

Loading next visibility...
Identifier
54895, 2022-151QG
Orbit
SSO
Country
Flag of CNCN / PRC
Related business
Manufacturer
SAST
Mission
Spacecraft
Bus & Motor
Unknown
Mass
Unknown
Launch date (UTC)
2022-11-11 (4 years ago)
Launch vehicle
Unknown
Launch site
Taiyaun Space Center, China (TSC)
Object type
Payload
Rocket body
Debris
Shape & HBR
Unknown shape, 0.1 m
Radar Cross Section
Medium (>0.1 m² and <1 m²)

Expand to show TLE details & history
Last TLE update: 3 days ago

TLE from 3 days ago
0 CZ-6A DEB
1 54895U 22151QG  26170.12352609  .00007492  00000-0  12252-2 0  9992
2 54895  98.6299 234.2917 0065967 281.5132  77.8670 14.69700680187720
Epoch: 2026-06-19T02:57Z
TLE epoch observation values (Epoch: 2026-06-19T02:57:52.654Z)
Latitude
-0.00001°
Longitude
-77.53471°
Altitude
655.539 km
Speed
7.535 km/s
True Right ascension
15h 37m 10s
True Declination
0° 00' 00"
Sunlit
Object was in full shadow at epoch
Visualization orbit readout
Latitude
Unknown
Longitude
Unknown
Altitude
Unknown
Speed
Unknown
Apparent Right ascension
Unknown
Apparent Declination
Unknown
Sunlit
N/A
Visualization observer readout
Local Sidereal Time
23:18:49
Azimuth
Unknown
Elevation
Unknown
Doppler factor
Unknown
Orbital elements
Apogee altitude
705.535 km
Perigee altitude
612.69 km
Semi-major axis
7,037.249 km
Eccentricity
0.0066
Inclination
98.6299°
RAAN
234.2917°
Arg. of periapsis
281.5132°
True anomaly
78.6073°
Mean anomaly
77.867°
Eccentric anomaly
78.23703°
Mean motion
3.67654 °/min
Orbital period
97.92 mins
BSTAR
0.0012252
Loading maneuver chart data...
Computing Atmospheric mass density...
Loading historical data...
Loading historical data...
Loading historical data...
Loading historical data...
Loading historical data...
Loading historical data...
Loading historical data...

Documentation

Showing up to 5 results
|